[[{"header":{"parameterUnit":"m.s-1","parameterCategory":2,"la1":30.2991,"la2":30.254,"lo1":-89.0895,"lo2":-89.0444,"dy":0.0017,"dx":0.0017,"nx":28,"ny":28,"refTime":"2025-03-23T03:00:00:Z","depth":"0","parameterNumber":2,"parameterNumberName":"U-component_of_CURRENTS"},"data":[0,0,0,0,0,0,0,0,0,0,0,0,0,0,0,0,0,0,0,0,0,0,0,0,0,0,0,0,0,0,0,0,0,0,0,0,0,0,0,0,0,0,0,0,0,0,0,0,0,0,0,0,0,0,0,0,0,0,0.342,0.3421,0,0.3498,0.3499,0.35,0.3516,0.3515,0.3515,0.3515,0.348,0.348,0.3479,0,0,0,0,0,0,0,0,0,0,0,0,0,0.328,0.3282,0.3419,0.3421,0.3422,0.3498,0.3499,0.35,0.3516,0.3515,0.3515,0.3515,0.3481,0.348,0.3479,0,0,0,0,0,0,0,0,0,0,0,0,0,0.3344,0.3282,0.3419,0.3442,0.3446,0.3498,0.3499,0.35,0.3516,0.3515,0.3515,0.3515,0.3481,0.348,0.3479,0.3479,0,0,0.3476,0.3475,0,0,0,0,0,0,0,0,0.334,0.3348,0.3438,0.3441,0.3445,0.3501,0.3437,0.3489,0.3516,0.3485,0.3515,0.3515,0.348,0.3479,0.349,0.3477,0.3476,0.3475,0.3475,0.3474,0.3474,0,0,0,0,0,0,0,0.3335,0.3345,0.3447,0.3439,0.3444,0.3448,0.3456,0.3447,0.3478,0.3487,0.349,0.3505,0.348,0.3491,0.3489,0.3475,0.3476,0.3475,0.3474,0.3473,0.3488,0.3489,0,0,0,0,0,0,0.3335,0.3341,0.3444,0.3449,0.3395,0.3451,0.346,0.348,0.348,0.3482,0.3506,0.3506,0.3493,0.349,0.3488,0.3495,0.3474,0.3473,0.3473,0.3487,0.3488,0.3489,0,0,0,0,0,0,0.3332,0.3344,0.3441,0.34,0.3413,0.3454,0.3476,0.3481,0.3499,0.3496,0.3495,0.3518,0.3493,0.3489,0.3488,0.3493,0.3473,0.3472,0.3485,0.3487,0.3488,0.3504,0,0,0,0,0,0,0.3327,0.3342,0.3352,0.34,0.3416,0.3477,0.3477,0.3483,0.351,0.3512,0.3506,0.3503,0.3492,0.349,0.3487,0.3491,0.3471,0.3484,0.3486,0.3488,0.3502,0.3506,0.3509,0,0,0,0,0,0.3322,0.335,0.3352,0.3365,0.343,0.3478,0.3486,0.3511,0.3511,0.3523,0.352,0.3503,0.35,0.349,0.3486,0.349,0.3483,0.3486,0.3488,0.3501,0.3505,0.3509,0,0,0,0,0,0,0.3294,0.3356,0.3359,0.3403,0.3435,0.3482,0.3501,0.3515,0.3526,0.3522,0.3512,0.3508,0.3511,0.3503,0.3492,0.3504,0.3491,0.3492,0.3502,0.3506,0.351,0.3581,0.347,0,0,0,0,0,0.3292,0.333,0.3376,0.3409,0.3426,0.346,0.3482,0.3499,0.3519,0.3525,0.3517,0.3514,0.3519,0.3514,0.3513,0.3513,0.3577,0.3517,0.3521,0.3523,0.3582,0.3694,0.3714,0.3496,0.3496,0.3496,0,0,0.3291,0.3329,0.335,0.3405,0.343,0.3471,0.3472,0.351,0.3543,0.3516,0.3539,0.3523,0.3524,0.3529,0.353,0.352,0.361,0.3526,0.3529,0.3587,0.3699,0.3721,0.374,0.3498,0.3498,0.3497,0,0,0.3319,0.3338,0.3381,0.3412,0.3459,0.3479,0.3491,0.3529,0.3544,0.3561,0.3556,0.3561,0.3545,0.3564,0.3569,0.3596,0.3627,0.3572,0.3642,0.3748,0.3768,0.3787,0.3862,0.3887,0.357,0.357,0.357,0,0.3313,0.3374,0.3397,0.3446,0.3475,0.3485,0.3529,0.3553,0.3583,0.3601,0.3569,0.3599,0.3579,0.3631,0.3638,0.3607,0.3669,0.3617,0.3756,0.3776,0.3795,0.3868,0.3896,0.3571,0.3571,0.3571,0.3571,0,0.3378,0.3421,0.3448,0.351,0.3536,0.3576,0.361,0.3626,0.3625,0.3648,0.3684,0.3672,0.3701,0.3676,0.3665,0.3774,0.3772,0.3748,0.375,0.3819,0.3889,0.3918,0.3573,0.3572,0.3572,0.3572,0,0,0.3387,0.3477,0.3489,0.3511,0.3573,0.3595,0.3649,0.3701,0.3739,0.3748,0.3814,0.3815,0.3817,0.3829,0.3809,0.3891,0.4039,0.3883,0.3888,0.3966,0.4274,0.4197,0.4221,0.4043,0.4049,0.4054,0.4258,0,0.343,0.3519,0.3559,0.3618,0.3654,0.3679,0.3725,0.3766,0.379,0.3846,0.3872,0.3911,0.3874,0.388,0.3967,0.4028,0.4123,0.3987,0.4192,0.4199,0.413,0.4255,0.4039,0.4198,0.4286,0.4291,0.4294,0,0.3487,0.3532,0.3606,0.3659,0.3677,0.3708,0.3765,0.3814,0.3902,0.3926,0.3995,0.4017,0.4137,0.4084,0.429,0.4208,0.4271,0.4313,0.4321,0.4283,0.4178,0.4151,0.4247,0.4079,0.4339,0.4335,0.4332,0,0.3471,0.3562,0.361,0.3635,0.3702,0.3726,0.3757,0.3831,0.3883,0.3993,0.4048,0.4172,0.4245,0.4371,0.4453,0.4398,0.4681,0.4601,0.4598,0.4591,0.4471,0.4443,0.4446,0.479,0.479,0.4789,0.4789,0,0.3502,0.3536,0.3599,0.3621,0.3665,0.3709,0.3771,0.3822,0.3924,0.4,0.4092,0.4186,0.4333,0.4481,0.4543,0.4677,0.4762,0.4677,0.467,0.4461,0.4432,0.433,0.4272,0.4797,0.4795,0.4794,0.4792,0,0.3483,0.3535,0.3583,0.3644,0.3661,0.3688,0.3774,0.3821,0.3921,0.4037,0.4085,0.4262,0.4455,0.4584,0.4792,0.4785,0.4769,0.4924,0.4654,0.4612,0.4406,0.4357,0.4349,0.4225,0.4967,0.4967,0.4966,0,0.3483,0.3508,0.3582,0.3611,0.3637,0.3687,0.3725,0.3812,0.3867,0.4068,0.4124,0.4351,0.4481,0.4757,0.4805,0.4935,0.4789,0.4786,0.4642,0.4427,0.4369,0.4222,0.4106,0.4476,0.4472,0.4468,0.4466,0,0.3471,0.3502,0.3545,0.3604,0.364,0.3677,0.3731,0.3769,0.3882,0.3992,0.4133,0.4259,0.4506,0.4547,0.4717,0.4752,0.4523,0.4719,0.4582,0.4091,0.3852,0.3713,0.429,0.4435,0.4438,0.444,0.4442,0.4443,0.3463,0.3492,0.3555,0.36,0.363,0.3634,0.3626,0.3689,0.3763,0.386,0.4046,0.4154,0.4275,0.4478,0.4504,0.4323,0.4352,0.4153,0.4147,0.4045,0.3815,0.4321,0.4393,0.4396,0.4398,0.44,0.4402,0,0.3458,0.3497,0.3544,0.357,0.3554,0.3591,0.3603,0.3561,0.3579,0.3722,0.3823,0.3888,0.3928,0.3992,0.3898,0.375,0.3597,0.3627,0.3352,0.3294,0.3819,0.368,0.3493,0.3493,0.3493,0.3493,0.3494,0.3494,0.3466,0.3507,0.3527,0.3487,0.348,0.3394,0.3369,0.3319,0.3357,0.3343,0.3348,0.3446,0.3541,0.3543,0.3356,0.3282,0.303,0.2898,0.2927,0.325,0.3295,0.3339,0.3191,0.2905,0.2904,0.2219,0.2214,0.221]},{"header":{"parameterUnit":"m.s-1","parameterCategory":2,"la1":30.2991,"la2":30.254,"lo1":-89.0895,"lo2":-89.0444,"dy":0.0017,"dx":0.0017,"nx":28,"ny":28,"refTime":"2025-03-23T03:00:00:Z","depth":"0","parameterNumber":3,"parameterNumberName":"V-component_of_CURRENTS"},"data":[0,0,0,0,0,0,0,0,0,0,0,0,0,0,0,0,0,0,0,0,0,0,0,0,0,0,0,0,0,0,0,0,0,0,0,0,0,0,0,0,0,0,0,0,0,0,0,0,0,0,0,0,0,0,0,0,0,0,-0.0186,-0.0187,0,-0.0255,-0.0256,-0.0257,-0.0292,-0.0293,-0.0293,-0.0293,-0.0321,-0.0321,-0.0322,0,0,0,0,0,0,0,0,0,0,0,0,0,-0.0074,-0.0076,-0.0186,-0.0187,-0.0188,-0.0255,-0.0256,-0.0257,-0.0292,-0.0293,-0.0293,-0.0293,-0.0321,-0.0321,-0.0322,0,0,0,0,0,0,0,0,0,0,0,0,0,-0.0129,-0.0077,-0.0186,-0.0216,-0.0219,-0.0255,-0.0256,-0.0257,-0.0292,-0.0293,-0.0293,-0.0293,-0.0321,-0.0321,-0.0322,-0.0319,0,0,-0.0324,-0.0325,0,0,0,0,0,0,0,0,-0.0126,-0.0133,-0.021,-0.0214,-0.0218,-0.0268,-0.0227,-0.0276,-0.0292,-0.0262,-0.0293,-0.0294,-0.03,-0.0303,-0.0312,-0.0321,-0.0322,-0.0324,-0.0325,-0.0325,-0.0325,0,0,0,0,0,0,0,-0.0122,-0.013,-0.0211,-0.0211,-0.0216,-0.0222,-0.023,-0.0236,-0.0276,-0.0265,-0.0268,-0.0279,-0.0302,-0.0312,-0.0313,-0.0322,-0.0324,-0.0325,-0.0326,-0.0326,-0.0271,-0.0269,0,0,0,0,0,0,-0.0118,-0.0127,-0.0209,-0.0213,-0.0174,-0.0224,-0.0233,-0.0249,-0.0277,-0.0282,-0.0279,-0.0281,-0.031,-0.0312,-0.0314,-0.0258,-0.0325,-0.0326,-0.0326,-0.0273,-0.027,-0.0268,0,0,0,0,0,0,-0.0116,-0.0125,-0.0206,-0.0173,-0.0184,-0.0226,-0.0244,-0.0251,-0.0259,-0.0288,-0.0293,-0.028,-0.0311,-0.0313,-0.0301,-0.0261,-0.0326,-0.0327,-0.0275,-0.0272,-0.0269,-0.0179,0,0,0,0,0,0,-0.0112,-0.0124,-0.0125,-0.0173,-0.0186,-0.0209,-0.0244,-0.0252,-0.0266,-0.0269,-0.0291,-0.0294,-0.0311,-0.03,-0.0302,-0.0263,-0.0328,-0.0277,-0.0274,-0.027,-0.0185,-0.0174,-0.0164,0,0,0,0,0,-0.0108,-0.0104,-0.0125,-0.0134,-0.0189,-0.0209,-0.0214,-0.0245,-0.0266,-0.0256,-0.0269,-0.0293,-0.0278,-0.0299,-0.0302,-0.0263,-0.0279,-0.0275,-0.027,-0.0189,-0.0176,-0.0165,0,0,0,0,0,0,-0.0046,-0.0109,-0.0132,-0.0146,-0.0169,-0.0215,-0.0211,-0.0239,-0.0245,-0.0248,-0.0277,-0.0279,-0.0251,-0.0269,-0.0292,-0.0234,-0.0279,-0.0275,-0.0217,-0.0204,-0.0194,-0.0162,-0.0328,0,0,0,0,0,-0.0037,-0.0053,-0.0107,-0.011,-0.0125,-0.0168,-0.018,-0.0203,-0.0223,-0.0227,-0.0243,-0.0249,-0.0236,-0.0231,-0.0231,-0.0205,-0.0201,-0.0178,-0.0168,-0.0159,-0.0133,-0.0075,-0.0057,-0.0254,-0.0254,-0.0254,0,0,-0.0011,-0.0048,-0.0055,-0.0098,-0.0122,-0.0114,-0.0174,-0.0187,-0.0168,-0.0227,-0.0199,-0.0217,-0.0222,-0.0188,-0.0176,-0.0197,-0.0107,-0.0154,-0.0146,-0.0125,-0.0069,-0.0049,-0.0032,-0.0251,-0.0252,-0.0252,0,0,0.0042,-0.0003,0.0005,-0.001,-0.0048,-0.0072,-0.0073,-0.0116,-0.0123,-0.0112,-0.0136,-0.0125,-0.0126,-0.0109,-0.0102,-0.0034,-0.0056,-0.004,0.0041,0.0097,0.0114,0.0129,0.0133,0.0148,-0.0032,-0.0032,-0.0032,0,0.0077,0.0075,0.0011,0.0022,0.0024,-0.0046,-0.0017,-0.003,-0.0058,-0.0045,-0.0086,-0.0055,-0.0077,-0.0004,0.0012,-0.0008,0.0002,-0.0008,0.0112,0.0127,0.0141,0.0142,0.0157,-0.0027,-0.0027,-0.0028,-0.0028,0,0.0135,0.0142,0.015,0.014,0.0136,0.0147,0.0114,0.0117,0.0088,0.0077,0.0118,0.0089,0.0117,0.0106,0.0075,0.0169,0.0134,0.0115,0.0082,0.0167,0.0161,0.0175,-0.002,-0.0022,-0.0023,-0.0024,0,0,0.0193,0.019,0.0197,0.0216,0.0197,0.0199,0.0236,0.0252,0.0293,0.0261,0.0333,0.0321,0.0295,0.0303,0.027,0.0301,0.0377,0.0252,0.0253,0.0258,0.0475,0.0406,0.0414,0.0384,0.0388,0.0391,0.0421,0,0.0263,0.0315,0.0294,0.0361,0.0386,0.0351,0.0398,0.0403,0.0402,0.0454,0.043,0.048,0.0377,0.04,0.0416,0.041,0.0424,0.0369,0.0391,0.0391,0.0323,0.0433,0.0393,0.0415,0.0434,0.0437,0.0438,0,0.033,0.0354,0.0426,0.047,0.0478,0.0509,0.0565,0.06,0.0648,0.0653,0.0687,0.067,0.0721,0.0618,0.0643,0.0616,0.0553,0.0519,0.052,0.0443,0.0352,0.0339,0.0439,0.0232,0.046,0.0458,0.0457,0,0.0398,0.0451,0.0512,0.0525,0.0561,0.0593,0.0619,0.0663,0.0724,0.08,0.087,0.0887,0.0945,0.0888,0.0788,0.074,0.0804,0.0731,0.0599,0.0591,0.0556,0.054,0.0468,0.0746,0.0746,0.0746,0.0746,0,0.0479,0.0528,0.0546,0.0578,0.0658,0.0662,0.0763,0.0789,0.0886,0.1012,0.0986,0.1104,0.1024,0.1032,0.089,0.0804,0.0886,0.0647,0.0621,0.058,0.0566,0.0381,0.0268,0.0747,0.0747,0.0747,0.0747,0,0.0545,0.0562,0.0625,0.067,0.0689,0.0745,0.0844,0.0936,0.1011,0.119,0.1238,0.1318,0.1345,0.1214,0.1151,0.0967,0.0747,0.0791,0.0718,0.0683,0.0342,0.0236,0.0164,0.0096,0.0672,0.0671,0.067,0,0.0585,0.0623,0.0679,0.0728,0.0747,0.083,0.0909,0.0987,0.1108,0.133,0.1447,0.1534,0.162,0.1473,0.119,0.0952,0.075,0.0707,0.0601,0.0351,0.0215,0.0135,0.0078,0.0576,0.0574,0.0573,0.0572,0,0.0653,0.0662,0.071,0.0807,0.0884,0.0989,0.1114,0.1226,0.1378,0.1552,0.1783,0.1876,0.175,0.1539,0.119,0.0983,0.0554,0.067,0.0467,0.0193,0.0054,-0.0034,0.0481,0.056,0.0561,0.0562,0.0563,0.0563,0.0692,0.0737,0.0801,0.0894,0.0999,0.1157,0.1271,0.1446,0.1668,0.1961,0.2016,0.2187,0.18,0.135,0.1061,0.0436,0.0479,0.0222,0.0131,0.0085,-0.0023,0.0435,0.0446,0.0447,0.0447,0.0448,0.0448,0,0.0748,0.0804,0.0895,0.1021,0.1159,0.1199,0.1423,0.1571,0.1855,0.2114,0.2312,0.2169,0.1704,0.1178,0.0361,-0.004,-0.0174,-0.0262,-0.0383,-0.0402,0.0058,0.0008,-0.0142,-0.0142,-0.0141,-0.0141,-0.0141,-0.0141,0.0785,0.0872,0.0921,0.1138,0.1244,0.1444,0.1581,0.1817,0.2022,0.2304,0.2388,0.242,0.1916,0.0561,-0.035,-0.0542,-0.0803,-0.0873,-0.096,-0.0687,-0.0649,-0.0613,-0.0687,-0.098,-0.0981,-0.1383,-0.1387,-0.1391]}],[{"header":{"parameterUnit":"m.s-1","parameterCategory":2,"la1":30.2991,"la2":30.254,"lo1":-89.0895,"lo2":-89.0444,"dy":0.0017,"dx":0.0017,"nx":28,"ny":28,"refTime":"2025-03-23T03:00:00:Z","depth":"2","parameterNumber":2,"parameterNumberName":"U-component_of_CURRENTS"},"data":[0,0,0,0,0,0,0,0,0,0,0,0,0,0,0,0,0,0,0,0,0,0,0,0,0,0,0,0,0,0,0,0,0,0,0,0,0,0,0,0,0,0,0,0,0,0,0,0,0,0,0,0,0,0,0,0,0,0,0.3006,0.3007,0,0.3052,0.3052,0.3053,0.312,0.3121,0.3122,0.3124,0.3173,0.3173,0.3173,0,0,0,0,0,0,0,0,0,0,0,0,0,0.2821,0.2824,0.3006,0.3007,0.3007,0.3052,0.3052,0.3053,0.3119,0.3121,0.3123,0.3124,0.3172,0.3173,0.3173,0,0,0,0,0,0,0,0,0,0,0,0,0,0.2886,0.2826,0.3006,0.3048,0.3052,0.3052,0.3052,0.3053,0.3119,0.3121,0.3123,0.3125,0.3172,0.3173,0.3173,0.3132,0,0,0.3173,0.3173,0,0,0,0,0,0,0,0,0.2882,0.2892,0.3041,0.3045,0.305,0.3084,0.3005,0.308,0.3119,0.3091,0.3124,0.3126,0.3143,0.3146,0.3147,0.3135,0.3137,0.3173,0.3173,0.3173,0.3173,0,0,0,0,0,0,0,0.2878,0.289,0.3022,0.3041,0.3047,0.3011,0.3024,0.3019,0.3104,0.3094,0.3099,0.3107,0.3146,0.3146,0.3148,0.3137,0.3173,0.3173,0.3173,0.3173,0.3224,0.3225,0,0,0,0,0,0,0.2883,0.2887,0.3021,0.3024,0.2971,0.3014,0.3028,0.3069,0.3104,0.3112,0.3105,0.311,0.3145,0.3148,0.315,0.3211,0.3173,0.3173,0.3173,0.3222,0.3224,0.3225,0,0,0,0,0,0,0.2879,0.2896,0.3019,0.2955,0.2969,0.3016,0.3061,0.3069,0.3098,0.3113,0.3121,0.313,0.3147,0.315,0.3171,0.3209,0.3173,0.3173,0.3221,0.3223,0.3225,0.3264,0,0,0,0,0,0,0.2874,0.2895,0.2923,0.2957,0.2973,0.303,0.306,0.3069,0.3099,0.3107,0.3136,0.3141,0.3149,0.317,0.3171,0.3209,0.3173,0.3219,0.3222,0.3224,0.3261,0.3267,0.3272,0,0,0,0,0,0.2868,0.2894,0.2925,0.294,0.3013,0.303,0.3035,0.3071,0.3099,0.3106,0.3134,0.3142,0.3188,0.317,0.3171,0.321,0.3218,0.3221,0.3224,0.3258,0.3266,0.3272,0,0,0,0,0,0,0.282,0.2905,0.2939,0.299,0.3016,0.3043,0.3055,0.3078,0.3104,0.3125,0.314,0.3146,0.3189,0.3184,0.3165,0.3234,0.3211,0.3214,0.3237,0.3244,0.325,0.3268,0.3173,0,0,0,0,0,0.2825,0.2882,0.2932,0.2974,0.299,0.3026,0.3039,0.3069,0.3095,0.3111,0.3135,0.3165,0.3193,0.3206,0.3226,0.3241,0.3263,0.3273,0.3279,0.3283,0.33,0.3357,0.337,0.3235,0.3235,0.3235,0,0,0.2816,0.2872,0.2902,0.2968,0.2996,0.3031,0.304,0.3072,0.3122,0.3109,0.3177,0.3184,0.3203,0.3241,0.3259,0.3244,0.3333,0.3287,0.3291,0.3305,0.3362,0.3375,0.3387,0.3237,0.3237,0.3236,0,0,0.2817,0.288,0.2923,0.2952,0.3006,0.3035,0.3051,0.3095,0.3138,0.3177,0.3204,0.3223,0.3257,0.3282,0.3298,0.3338,0.3365,0.3358,0.3395,0.3451,0.3462,0.3473,0.3517,0.3532,0.3356,0.3356,0.3356,0,0.2801,0.2883,0.2926,0.2968,0.3006,0.3046,0.3088,0.3129,0.3179,0.3216,0.321,0.3286,0.328,0.3349,0.3362,0.3352,0.3391,0.3366,0.3459,0.347,0.348,0.3523,0.3538,0.3358,0.3358,0.3357,0.3357,0,0.2836,0.2899,0.292,0.3014,0.3046,0.3088,0.3154,0.3201,0.3249,0.3287,0.3364,0.336,0.3413,0.3408,0.339,0.3472,0.3479,0.3463,0.3441,0.3496,0.3537,0.3553,0.3361,0.336,0.336,0.3359,0,0,0.2836,0.2929,0.2948,0.2993,0.3086,0.3114,0.3205,0.3289,0.3358,0.34,0.3489,0.3505,0.3517,0.3536,0.3532,0.3549,0.3625,0.3537,0.3539,0.3581,0.3763,0.3609,0.3611,0.3639,0.3642,0.3644,0.3762,0,0.2865,0.294,0.2995,0.308,0.3126,0.3196,0.3272,0.3351,0.3421,0.3509,0.3542,0.3611,0.3572,0.3597,0.3623,0.3638,0.367,0.3596,0.3704,0.3707,0.3564,0.3624,0.3327,0.3393,0.3776,0.3779,0.3781,0,0.2908,0.2958,0.3033,0.313,0.3159,0.3214,0.3351,0.3422,0.3545,0.3601,0.3687,0.3728,0.3801,0.3739,0.383,0.3797,0.3793,0.3778,0.3783,0.3639,0.3582,0.3401,0.3407,0.3806,0.3804,0.3802,0.3801,0,0.2903,0.2998,0.3063,0.3097,0.32,0.3259,0.3326,0.3445,0.3514,0.3674,0.3729,0.3851,0.3917,0.395,0.3935,0.391,0.4006,0.3971,0.3833,0.3823,0.3588,0.355,0.4029,0.4029,0.4028,0.4028,0.4028,0,0.2929,0.2986,0.3061,0.3099,0.3177,0.3255,0.3357,0.3445,0.357,0.3658,0.3778,0.3869,0.3973,0.4036,0.4008,0.3973,0.4085,0.3859,0.3848,0.359,0.3553,0.392,0.3905,0.4032,0.4031,0.4031,0.403,0,0.2912,0.2972,0.3036,0.3137,0.3175,0.3226,0.3347,0.3404,0.3541,0.3668,0.3724,0.392,0.4026,0.4073,0.4139,0.4051,0.4025,0.3974,0.3656,0.3603,0.3795,0.3782,0.3868,0.3863,0.386,0.3857,0.3854,0,0.2902,0.2932,0.3034,0.3059,0.3107,0.319,0.324,0.3381,0.344,0.3679,0.3723,0.3908,0.3966,0.4012,0.3928,0.3872,0.3981,0.3556,0.3424,0.38,0.3783,0.3775,0.3767,0.3144,0.3136,0.3129,0.3124,0,0.2852,0.2894,0.293,0.2985,0.3039,0.3102,0.3187,0.3226,0.3403,0.3502,0.3669,0.3738,0.3812,0.3642,0.3559,0.348,0.3539,0.3414,0.3926,0.3207,0.312,0.3102,0.3117,0.3064,0.307,0.3074,0.3078,0.308,0.2785,0.2788,0.2827,0.288,0.2941,0.2986,0.3004,0.3067,0.3139,0.32,0.3412,0.3379,0.3404,0.3113,0.3008,0.2953,0.3175,0.3028,0.3048,0.3076,0.2947,0.2856,0.2728,0.2731,0.2735,0.2738,0.274,0,0.2652,0.2691,0.2715,0.276,0.277,0.2885,0.2939,0.2896,0.2905,0.2926,0.2963,0.2669,0.2513,0.2586,0.2383,0.2331,0.2305,0.2269,0.2234,0.2294,0.2347,0.2181,0.1759,0.1756,0.1753,0.1751,0,0,0.2578,0.2546,0.2569,0.2562,0.2637,0.2637,0.2662,0.2552,0.2515,0.2364,0.2277,0.232,0.2463,0.2057,0.2003,0.1875,0.2071,0.1795,0.2583,0.2602,0.2652,0.2784,0.2594,0,0,0,0,0]},{"header":{"parameterUnit":"m.s-1","parameterCategory":2,"la1":30.2991,"la2":30.254,"lo1":-89.0895,"lo2":-89.0444,"dy":0.0017,"dx":0.0017,"nx":28,"ny":28,"refTime":"2025-03-23T03:00:00:Z","depth":"2","parameterNumber":3,"parameterNumberName":"V-component_of_CURRENTS"},"data":[0,0,0,0,0,0,0,0,0,0,0,0,0,0,0,0,0,0,0,0,0,0,0,0,0,0,0,0,0,0,0,0,0,0,0,0,0,0,0,0,0,0,0,0,0,0,0,0,0,0,0,0,0,0,0,0,0,0,-0.0512,-0.0513,0,-0.0599,-0.0599,-0.06,-0.061,-0.0609,-0.0608,-0.0608,-0.0603,-0.0603,-0.0604,0,0,0,0,0,0,0,0,0,0,0,0,0,-0.0387,-0.0389,-0.0511,-0.0513,-0.0514,-0.0598,-0.0599,-0.06,-0.061,-0.0609,-0.0608,-0.0607,-0.0603,-0.0603,-0.0604,0,0,0,0,0,0,0,0,0,0,0,0,0,-0.0452,-0.0389,-0.0511,-0.053,-0.0533,-0.0598,-0.06,-0.0601,-0.061,-0.0609,-0.0608,-0.0607,-0.0603,-0.0603,-0.0604,-0.063,0,0,-0.0607,-0.0607,0,0,0,0,0,0,0,0,-0.0448,-0.0456,-0.0526,-0.0529,-0.0532,-0.0594,-0.0554,-0.0607,-0.061,-0.0579,-0.0608,-0.0606,-0.0593,-0.0595,-0.0612,-0.063,-0.063,-0.0607,-0.0607,-0.0607,-0.0608,0,0,0,0,0,0,0,-0.0444,-0.0453,-0.0544,-0.0528,-0.0532,-0.0546,-0.0554,-0.0564,-0.0588,-0.0581,-0.0583,-0.0596,-0.0594,-0.0612,-0.0612,-0.063,-0.0607,-0.0607,-0.0608,-0.0608,-0.0541,-0.0539,0,0,0,0,0,0,-0.0437,-0.0449,-0.0541,-0.0547,-0.0489,-0.0549,-0.0558,-0.0574,-0.059,-0.0592,-0.0597,-0.0596,-0.0611,-0.0611,-0.0612,-0.0535,-0.0607,-0.0608,-0.0609,-0.0543,-0.0541,-0.0538,0,0,0,0,0,0,-0.0434,-0.0445,-0.0538,-0.0501,-0.0514,-0.0552,-0.057,-0.0576,-0.0583,-0.0603,-0.0603,-0.0597,-0.061,-0.061,-0.0598,-0.0539,-0.0609,-0.0609,-0.0546,-0.0542,-0.0539,-0.0451,0,0,0,0,0,0,-0.043,-0.0443,-0.0447,-0.0501,-0.0516,-0.0565,-0.0572,-0.0578,-0.0595,-0.0594,-0.0604,-0.0603,-0.0609,-0.0597,-0.0599,-0.0541,-0.061,-0.0549,-0.0544,-0.054,-0.0456,-0.0445,-0.0435,0,0,0,0,0,-0.0425,-0.0436,-0.0447,-0.0458,-0.0523,-0.0565,-0.0573,-0.0596,-0.0596,-0.0598,-0.0593,-0.0602,-0.057,-0.0597,-0.06,-0.054,-0.0551,-0.0546,-0.0541,-0.0461,-0.0447,-0.0435,0,0,0,0,0,0,-0.0378,-0.0441,-0.0453,-0.048,-0.0514,-0.0567,-0.0574,-0.0592,-0.0596,-0.0586,-0.0597,-0.0596,-0.0553,-0.0567,-0.0597,-0.0505,-0.0553,-0.0548,-0.0491,-0.0478,-0.0467,-0.046,-0.0611,0,0,0,0,0,-0.0373,-0.0398,-0.0453,-0.047,-0.0487,-0.0529,-0.0547,-0.0563,-0.058,-0.0582,-0.0582,-0.0567,-0.0538,-0.0527,-0.0516,-0.0488,-0.051,-0.0443,-0.0432,-0.0423,-0.0417,-0.0396,-0.0383,-0.0521,-0.0522,-0.0522,0,0,-0.0359,-0.0396,-0.0408,-0.0462,-0.0489,-0.0491,-0.0536,-0.0559,-0.0536,-0.0579,-0.0538,-0.0538,-0.0524,-0.0475,-0.0455,-0.0478,-0.0397,-0.0416,-0.0408,-0.0407,-0.0389,-0.0376,-0.0364,-0.0518,-0.0519,-0.0519,0,0,-0.0341,-0.0374,-0.0387,-0.0407,-0.0449,-0.0467,-0.0469,-0.051,-0.0502,-0.0486,-0.0481,-0.0453,-0.0433,-0.04,-0.0381,-0.0308,-0.0342,-0.0292,-0.0231,-0.021,-0.0199,-0.0189,-0.0217,-0.021,-0.0284,-0.0284,-0.0284,0,-0.0319,-0.0335,-0.0393,-0.0399,-0.0393,-0.0445,-0.0427,-0.0433,-0.0454,-0.0429,-0.0453,-0.0388,-0.0388,-0.0302,-0.0271,-0.0281,-0.0297,-0.0283,-0.0197,-0.0188,-0.018,-0.021,-0.0204,-0.0279,-0.028,-0.028,-0.0281,0,-0.0307,-0.0307,-0.0311,-0.0323,-0.0325,-0.0323,-0.0334,-0.0319,-0.0315,-0.0317,-0.0253,-0.0262,-0.0214,-0.0202,-0.0218,-0.0136,-0.0178,-0.0189,-0.0234,-0.016,-0.0197,-0.0193,-0.0272,-0.0274,-0.0275,-0.0276,0,0,-0.0283,-0.0299,-0.0294,-0.0273,-0.0276,-0.0278,-0.022,-0.0189,-0.014,-0.015,-0.0066,-0.0045,-0.006,-0.004,-0.0048,-0.0043,-0.0011,-0.009,-0.0091,-0.0125,0.0001,-0.0066,-0.0068,-0.0007,-0.0006,-0.0004,-0.0056,0,-0.0245,-0.0228,-0.0235,-0.0177,-0.016,-0.0153,-0.0095,-0.0066,-0.0044,0.002,0.0027,0.0088,0.0009,0.0045,0.0042,0.002,0.0009,0.0002,-0.0059,-0.0062,-0.0135,-0.0061,-0.0053,-0.0101,-0.0052,-0.0051,-0.0051,0,-0.0217,-0.0206,-0.0151,-0.0093,-0.0082,-0.0042,0.0053,0.0093,0.0166,0.0191,0.0238,0.0238,0.0279,0.02,0.0162,0.0161,0.0087,0.0037,0.0034,-0.0054,-0.0118,-0.0161,-0.0095,-0.0044,-0.0044,-0.0045,-0.0045,0,-0.0169,-0.0133,-0.0078,-0.0062,-0.0015,0.0041,0.0083,0.015,0.0209,0.0311,0.0368,0.0391,0.0445,0.0355,0.0238,0.0215,0.0171,0.0135,-0.0007,-0.0015,-0.0034,-0.0046,0.01,0.01,0.01,0.01,0.01,0,-0.012,-0.0073,-0.0053,-0.0025,0.0057,0.0086,0.019,0.0236,0.0339,0.0441,0.0455,0.0536,0.0489,0.0456,0.0303,0.016,0.0221,0.0013,-0.0016,-0.0006,-0.0014,0.0016,0.0007,0.0098,0.0098,0.0099,0.0099,0,-0.0077,-0.0062,-0.0007,0.0049,0.0076,0.0133,0.024,0.0312,0.04,0.055,0.06,0.0681,0.0652,0.0532,0.0428,0.0268,0.0118,0.0042,0.0031,0.0002,-0.0107,-0.011,-0.0104,-0.0106,-0.0108,-0.011,-0.0111,0,-0.0056,-0.0029,0.003,0.0063,0.0092,0.0177,0.0243,0.034,0.0433,0.0621,0.0706,0.0763,0.0813,0.0606,0.0367,0.0114,0.0094,-0.0064,-0.0104,-0.009,-0.0119,-0.012,-0.0121,-0.0104,-0.0105,-0.0106,-0.0107,0,-0.003,-0.0012,0.002,0.0088,0.0154,0.0247,0.0358,0.0449,0.0605,0.0762,0.096,0.1025,0.0855,0.0658,0.031,0.0119,-0.0022,-0.0096,-0.0029,-0.0061,-0.0096,-0.0123,-0.0123,-0.0116,-0.0115,-0.0114,-0.0114,-0.0114,-0.0024,-0.0002,0.0035,0.0112,0.0194,0.0334,0.0458,0.0619,0.0828,0.1107,0.1113,0.1222,0.0945,0.0531,0.0212,-0.0103,-0.0094,-0.0214,-0.0207,-0.0201,-0.0199,-0.0235,-0.0284,-0.0284,-0.0284,-0.0284,-0.0284,0,-0.0025,0.0004,0.0062,0.0166,0.0284,0.0341,0.0551,0.0732,0.1039,0.1215,0.1404,0.116,0.0883,0.0559,0.0073,-0.0238,-0.0242,-0.032,-0.0254,-0.0244,-0.0236,-0.0232,-0.0328,-0.0329,-0.033,-0.033,0,0,-0.0032,0.0015,0.0056,0.0233,0.0338,0.0559,0.0717,0.1021,0.1206,0.1434,0.1492,0.1437,0.0992,0.0633,0.0219,-0.0041,-0.0066,-0.0096,-0.0035,0.01,0.0113,-0.0158,-0.0142,0,0,0,0,0]}],[{"header":{"parameterUnit":"m.s-1","parameterCategory":2,"la1":30.2991,"la2":30.254,"lo1":-89.0895,"lo2":-89.0444,"dy":0.0017,"dx":0.0017,"nx":28,"ny":28,"refTime":"2025-03-23T03:00:00:Z","depth":"4","parameterNumber":2,"parameterNumberName":"U-component_of_CURRENTS"},"data":[0,0,0,0,0,0,0,0,0,0,0,0,0,0,0,0,0,0,0,0,0,0,0,0,0,0,0,0,0,0,0,0,0,0,0,0,0,0,0,0,0,0,0,0,0,0,0,0,0,0,0,0,0,0,0,0,0,0,0.0583,0.0584,0,0.0595,0.0595,0.0594,0.0643,0.0645,0.0647,0.0649,0.0813,0.0815,0.0818,0,0,0,0,0,0,0,0,0,0,0,0,0,0.0513,0.0513,0.0583,0.0584,0.0586,0.0595,0.0594,0.0594,0.0643,0.0645,0.0648,0.065,0.0812,0.0815,0.0818,0,0,0,0,0,0,0,0,0,0,0,0,0,0.0526,0.0514,0.0583,0.0619,0.0623,0.0596,0.0594,0.0593,0.0642,0.0645,0.0649,0.0652,0.0811,0.0815,0.0818,0.0776,0,0,0.0829,0.0831,0,0,0,0,0,0,0,0,0.0525,0.0527,0.0613,0.0617,0.0622,0.0631,0.063,0.0666,0.0641,0.0624,0.065,0.0653,0.0771,0.0778,0.0755,0.0783,0.079,0.0829,0.0831,0.0833,0.0834,0,0,0,0,0,0,0,0.0524,0.0526,0.0577,0.0614,0.0619,0.0605,0.061,0.0635,0.0673,0.0625,0.0632,0.0649,0.0773,0.0751,0.076,0.0793,0.0829,0.0832,0.0835,0.0836,0.105,0.1054,0,0,0,0,0,0,0.0546,0.0526,0.0577,0.0579,0.0592,0.0605,0.061,0.0616,0.067,0.0683,0.0647,0.0652,0.0744,0.0756,0.0766,0.0914,0.0833,0.0836,0.0838,0.1047,0.1051,0.1055,0,0,0,0,0,0,0.0544,0.0549,0.0577,0.0562,0.0566,0.0604,0.0609,0.0614,0.0619,0.0686,0.0701,0.0651,0.0747,0.0762,0.0836,0.0915,0.0838,0.0841,0.1042,0.1048,0.1053,0.1087,0,0,0,0,0,0,0.0541,0.0548,0.054,0.0563,0.0568,0.0596,0.0608,0.0613,0.0629,0.0636,0.0695,0.0711,0.075,0.0831,0.084,0.0918,0.0844,0.1038,0.1045,0.1051,0.1081,0.1092,0.1102,0,0,0,0,0,0.0538,0.053,0.0539,0.0545,0.0562,0.0598,0.0598,0.0628,0.0626,0.0638,0.0688,0.0711,0.0883,0.0834,0.0845,0.0926,0.1035,0.1043,0.1051,0.1076,0.109,0.1102,0,0,0,0,0,0,0.0499,0.0536,0.0546,0.055,0.0588,0.0612,0.0623,0.0626,0.0659,0.068,0.072,0.0741,0.0866,0.0874,0.082,0.1015,0.0976,0.0986,0.0993,0.1006,0.1016,0.1068,0.0847,0,0,0,0,0,0.0485,0.0491,0.0533,0.0541,0.0563,0.0584,0.0594,0.0622,0.0664,0.0679,0.0745,0.0817,0.0895,0.0929,0.1015,0.1066,0.1096,0.1141,0.1151,0.116,0.1214,0.1339,0.1366,0.1081,0.1081,0.1081,0,0,0.047,0.0496,0.0496,0.0533,0.0561,0.0606,0.0597,0.0639,0.07,0.0694,0.081,0.0866,0.0926,0.1035,0.1089,0.1049,0.1237,0.117,0.1176,0.1228,0.1351,0.1378,0.1403,0.1087,0.1086,0.1085,0,0,0.0475,0.0477,0.0497,0.0525,0.0587,0.062,0.0638,0.0699,0.0753,0.0856,0.0887,0.0993,0.1095,0.1165,0.1203,0.1314,0.131,0.133,0.1397,0.1516,0.1541,0.1563,0.1538,0.1558,0.1309,0.1309,0.1309,0,0.0463,0.0492,0.0509,0.0547,0.0588,0.0634,0.0686,0.0738,0.0829,0.0881,0.0933,0.1122,0.1188,0.1282,0.1351,0.1347,0.1351,0.1328,0.1529,0.1552,0.1575,0.1545,0.1567,0.1311,0.1311,0.1311,0.1311,0,0.0476,0.0516,0.0539,0.0611,0.0652,0.0705,0.0796,0.0866,0.0959,0.1024,0.1193,0.1292,0.1402,0.144,0.1442,0.1602,0.1526,0.1542,0.1487,0.1605,0.1565,0.1586,0.1315,0.1314,0.1313,0.1313,0,0,0.0439,0.0531,0.0547,0.0591,0.0692,0.073,0.085,0.0963,0.1033,0.1193,0.1291,0.1494,0.1543,0.1594,0.1602,0.1709,0.1852,0.169,0.1695,0.1646,0.2006,0.1818,0.1822,0.1886,0.1893,0.1898,0.1876,0,0.0466,0.0538,0.0592,0.0692,0.0741,0.0822,0.0905,0.1008,0.1154,0.1262,0.1393,0.1535,0.1592,0.1653,0.1773,0.1858,0.1929,0.1851,0.1919,0.192,0.1727,0.1852,0.1919,0.1892,0.1897,0.19,0.1903,0,0.0478,0.0525,0.0615,0.0721,0.0749,0.0821,0.0966,0.1066,0.1212,0.1325,0.1485,0.157,0.1751,0.1793,0.2026,0.1961,0.2014,0.2066,0.2066,0.1919,0.178,0.178,0.1943,0.194,0.1937,0.1934,0.1932,0,0.0435,0.0557,0.0632,0.0663,0.0775,0.0846,0.0938,0.1088,0.1193,0.1394,0.1483,0.1673,0.1788,0.1957,0.2102,0.2082,0.23,0.2273,0.2124,0.2103,0.2255,0.2233,0.2451,0.2451,0.2451,0.2451,0.2451,0,0.0438,0.0497,0.062,0.0644,0.0708,0.083,0.0953,0.106,0.1241,0.1339,0.1525,0.1624,0.1862,0.1984,0.2102,0.2175,0.2315,0.2178,0.2135,0.225,0.223,0.2262,0.224,0.245,0.2451,0.2451,0.2451,0,0.0385,0.0466,0.0531,0.0651,0.0688,0.0748,0.0939,0.1034,0.1227,0.1364,0.1439,0.1635,0.1804,0.1948,0.2169,0.2151,0.2261,0.2231,0.2267,0.2219,0.1952,0.1933,0.2064,0.2058,0.2053,0.2049,0.2046,0,0.0366,0.0395,0.0494,0.0522,0.0591,0.0708,0.0773,0.0996,0.1126,0.1358,0.14,0.1582,0.1688,0.183,0.2,0.2129,0.2134,0.2114,0.2138,0.1992,0.1938,0.1926,0.1913,0.2038,0.2037,0.2036,0.2034,0,0.0305,0.0343,0.0387,0.0431,0.0512,0.0588,0.0738,0.0818,0.1064,0.1217,0.1374,0.1476,0.1578,0.1737,0.1819,0.1931,0.2115,0.2064,0.2075,0.2098,0.1963,0.191,0.1904,0.2018,0.202,0.2022,0.2023,0,0.0252,0.0253,0.0306,0.035,0.0419,0.0482,0.0566,0.0737,0.0881,0.1169,0.1194,0.139,0.1542,0.1628,0.1739,0.1803,0.1799,0.1772,0.1798,0.1817,0.176,0.1553,0.1486,0,0,0,0,0,0.0204,0.0205,0.0225,0.0274,0.0342,0.0386,0.0543,0.0656,0.0869,0.0951,0.1101,0.1214,0.1362,0.1471,0.1498,0.1603,0.1779,0.1622,0.1751,0.1925,0.1945,0.1906,0,0,0,0,0,0,0.0172,0.0187,0.0195,0.0211,0.0237,0.0314,0.041,0.0545,0.0638,0.085,0.0961,0.1109,0.1291,0.1334,0.1461,0.1492,0.1544,0.1753,0.175,0.1915,0.1932,0.1947,0.1914,0,0,0,0,0]},{"header":{"parameterUnit":"m.s-1","parameterCategory":2,"la1":30.2991,"la2":30.254,"lo1":-89.0895,"lo2":-89.0444,"dy":0.0017,"dx":0.0017,"nx":28,"ny":28,"refTime":"2025-03-23T03:00:00:Z","depth":"4","parameterNumber":3,"parameterNumberName":"V-component_of_CURRENTS"},"data":[0,0,0,0,0,0,0,0,0,0,0,0,0,0,0,0,0,0,0,0,0,0,0,0,0,0,0,0,0,0,0,0,0,0,0,0,0,0,0,0,0,0,0,0,0,0,0,0,0,0,0,0,0,0,0,0,0,0,0.0418,0.0418,0,0.0427,0.0427,0.0427,0.0422,0.0422,0.0421,0.0421,0.0356,0.0354,0.0353,0,0,0,0,0,0,0,0,0,0,0,0,0,0.0365,0.0367,0.0418,0.0418,0.0418,0.0427,0.0427,0.0427,0.0422,0.0422,0.0421,0.0421,0.0356,0.0354,0.0352,0,0,0,0,0,0,0,0,0,0,0,0,0,0.0382,0.0367,0.0418,0.0417,0.0417,0.0427,0.0427,0.0427,0.0422,0.0422,0.0421,0.0421,0.0357,0.0354,0.0352,0.0344,0,0,0.0345,0.0344,0,0,0,0,0,0,0,0,0.0381,0.0384,0.0417,0.0417,0.0417,0.0424,0.0385,0.0396,0.0422,0.0419,0.0421,0.0421,0.0372,0.0368,0.0371,0.0341,0.0338,0.0345,0.0343,0.0342,0.0342,0,0,0,0,0,0,0,0.038,0.0384,0.0421,0.0417,0.0417,0.0406,0.0408,0.0387,0.0396,0.042,0.0419,0.0421,0.0371,0.0373,0.0369,0.0338,0.0345,0.0343,0.0341,0.0341,0.0251,0.025,0,0,0,0,0,0,0.0383,0.0383,0.0421,0.0421,0.0399,0.0407,0.041,0.0421,0.0397,0.0394,0.0422,0.0421,0.0378,0.0372,0.0367,0.0323,0.0342,0.034,0.0339,0.0252,0.0251,0.025,0,0,0,0,0,0,0.0382,0.0386,0.042,0.0402,0.0406,0.0409,0.0422,0.0422,0.0431,0.04,0.0395,0.0431,0.0377,0.037,0.0362,0.0322,0.0339,0.0337,0.0253,0.0252,0.025,0.0256,0,0,0,0,0,0,0.038,0.0386,0.0403,0.0403,0.0407,0.0431,0.0422,0.0422,0.0432,0.0432,0.0406,0.04,0.0376,0.0366,0.036,0.0319,0.0335,0.0254,0.0253,0.0251,0.0257,0.0255,0.0253,0,0,0,0,0,0.0378,0.0406,0.0404,0.0409,0.0428,0.0432,0.0433,0.0433,0.0433,0.044,0.0429,0.0401,0.0348,0.0365,0.0358,0.0314,0.0255,0.0253,0.0251,0.0258,0.0256,0.0253,0,0,0,0,0,0,0.0389,0.0408,0.0406,0.0437,0.0435,0.0431,0.0446,0.0441,0.0439,0.044,0.0411,0.0404,0.0375,0.0352,0.0371,0.0281,0.0287,0.0284,0.0295,0.0292,0.029,0.0267,0.0333,0,0,0,0,0,0.04,0.0432,0.0428,0.0455,0.0456,0.0451,0.0457,0.0451,0.0447,0.0447,0.043,0.0399,0.0358,0.0337,0.0311,0.0276,0.0251,0.0235,0.0233,0.0232,0.0207,0.017,0.0162,0.0243,0.0243,0.0243,0,0,0.0416,0.0427,0.0449,0.046,0.0462,0.0457,0.0454,0.0464,0.0453,0.0438,0.0431,0.0404,0.0353,0.0312,0.0292,0.0287,0.0196,0.0229,0.0228,0.0204,0.0167,0.0159,0.0152,0.0241,0.0241,0.0242,0,0,0.0446,0.0468,0.0494,0.0485,0.0485,0.0479,0.0482,0.0479,0.0473,0.0464,0.0435,0.0386,0.0356,0.029,0.0254,0.0224,0.0198,0.0214,0.0172,0.0137,0.013,0.0124,0.0088,0.0078,0.0201,0.0201,0.0201,0,0.046,0.0487,0.0499,0.0497,0.0497,0.0487,0.049,0.0475,0.0469,0.0455,0.0463,0.0367,0.033,0.0232,0.0213,0.0213,0.0203,0.019,0.0135,0.0128,0.0122,0.0086,0.0076,0.0201,0.0201,0.0201,0.0201,0,0.0481,0.0502,0.0514,0.0512,0.0512,0.0517,0.0492,0.0487,0.0482,0.0456,0.0391,0.0335,0.0268,0.0235,0.0213,0.0123,0.0136,0.0151,0.0145,0.0114,0.0079,0.0067,0.0201,0.0201,0.0201,0.0201,0,0,0.0517,0.0529,0.0535,0.0541,0.0521,0.0528,0.0503,0.0478,0.0466,0.0414,0.0374,0.0264,0.0228,0.0181,0.0129,0.0072,0.0014,0.0089,0.0087,0.0058,-0.0056,-0.0044,-0.0055,0.0039,0.0037,0.0035,-0.0058,0,0.053,0.0545,0.0546,0.056,0.0564,0.0543,0.0525,0.0492,0.047,0.043,0.0316,0.0271,0.0208,0.0182,0.0101,0.004,-0.0017,0.0037,-0.0028,-0.0031,-0.0012,-0.0068,0.0028,-0.0067,-0.007,-0.0071,-0.0073,0,0.0545,0.0556,0.0579,0.059,0.0592,0.0601,0.0587,0.0572,0.0491,0.0465,0.0363,0.0298,0.0152,0.0146,-0.003,0.0018,-0.0027,-0.0074,-0.0077,-0.0083,-0.0041,-0.0033,-0.0094,-0.0092,-0.009,-0.0089,-0.0088,0,0.0566,0.0585,0.0618,0.0614,0.0613,0.0631,0.064,0.0592,0.0596,0.0503,0.0478,0.0302,0.0233,0.0116,-0.0021,-0.0007,-0.0177,-0.0158,-0.0201,-0.0199,-0.0181,-0.0174,-0.0256,-0.0255,-0.0255,-0.0255,-0.0255,0,0.0574,0.06,0.0645,0.0653,0.0692,0.0688,0.0727,0.0691,0.0667,0.0642,0.051,0.0429,0.0233,0.0101,-0.0015,-0.0165,-0.0176,-0.0237,-0.0234,-0.0175,-0.0166,-0.0189,-0.018,-0.0258,-0.0258,-0.0257,-0.0256,0,0.0585,0.0609,0.0649,0.0686,0.0706,0.0744,0.0811,0.0834,0.0795,0.0755,0.0728,0.0538,0.0347,0.0156,-0.0036,-0.0137,-0.0276,-0.0306,-0.0246,-0.0233,-0.0277,-0.0267,-0.0384,-0.0384,-0.0385,-0.0385,-0.0386,0,0.0586,0.0613,0.0683,0.072,0.0754,0.0825,0.087,0.0892,0.0911,0.08,0.0765,0.0588,0.0431,0.0142,-0.0044,-0.0274,-0.0286,-0.0352,-0.0331,-0.0311,-0.0296,-0.0285,-0.0274,-0.0387,-0.0387,-0.0387,-0.0387,0,0.0585,0.0631,0.0668,0.0746,0.0824,0.0898,0.0965,0.0979,0.0966,0.0942,0.078,0.0597,0.0381,0.0134,-0.0031,-0.0194,-0.0322,-0.0358,-0.0357,-0.0338,-0.0315,-0.0297,-0.0286,-0.0389,-0.0388,-0.0388,-0.0388,0,0.0598,0.0631,0.0697,0.0765,0.086,0.0925,0.0961,0.0972,0.0991,0.0874,0.0816,0.0568,0.0434,0.0176,0.0008,-0.0147,-0.0181,-0.0218,-0.0226,-0.0226,-0.0152,-0.0098,-0.0127,0,0,0,0,0,0.0594,0.0637,0.0703,0.0782,0.0881,0.0935,0.0996,0.1023,0.1005,0.0908,0.0871,0.0663,0.0368,0.0227,0.0075,0.0004,-0.0203,-0.0179,-0.0247,-0.0398,-0.0396,-0.0336,0,0,0,0,0,0,0.0598,0.066,0.0696,0.0792,0.085,0.0961,0.1,0.0985,0.0931,0.0872,0.072,0.0645,0.0367,0.0462,0.0077,0.0026,-0.0035,-0.0309,-0.0312,-0.04,-0.0398,-0.0396,-0.0334,0,0,0,0,0]}]]